Tracking 25689 objects as of 7-Jul-2022
HD Live streaming from Space Station
objects crossing your sky now

STARLINK-3605

Track STARLINK-3605 now!
10-day predictions
STARLINK-3605 is classified as:


NORAD ID: 51805
Int'l Code: 2022-017AP
Perigee: 545.8 km
Apogee: 548.1 km
Inclination: 53.2 °
Period: 95.4 minutes
Semi major axis: 6917 km
RCS: Unknown
Launch date: February 25, 2022
Source: United States (US)
Launch site: AIR FORCE WESTERN TEST RANGE (AFWTR)
aabbcc
Your satellite tracking list
Your tracking list is empty




NASA's NSSDC Master Catalog

Two Line Element Set (TLE):
1 51805U 22017AP  22187.85919086 -.00000963  00000-0 -42418-4 0  9990
2 51805  53.2129 232.8300 0001687  51.4136 308.7007 15.08828518 21670
Source of the keplerian elements: AFSPC